Flag for U.S.A. Weather past 2 weeks in Philadelphia, Pennsylvania, U.S.A.

Now
22 °F

Passing clouds.


Feels Like: 14 °F
Forecast: 20 / 36 °F
Wind: 6 mph from Southwest

Location: Philadelphia International Airport

Current Time: Feb 1, 2015 at 4:04:49 AM

Latest Report: Feb 1, 2015 at 2:54 AM


Visibility: 10 mi

Pressure: 30.26 "Hg

Humidity: 62%

Dew point: 11 °F

Location of PhiladelphiaLocation

Historic Weather in Philadelphia — Graph

°F

Philadelphia temperature yesterday

Maximum temperature yesterday: 29 °F (at 3:54 PM)
Minimum temperature yesterday: 15 °F (at 4:54 AM)
Average temperature yesterday: 22 °F

Past Weeks' High & Low Weather Summary

 TemperatureHumidityPressure
High46 °F (Jan 25, 12:54 PM)100% (Jan 18, 1:54 PM)30.45 "Hg (Jan 18, 1:54 PM)
Low15 °F (Jan 31, 4:54 AM)24% (Jan 28, 2:54 PM)29.35 "Hg (Jan 24, 1:54 PM)
Average32 °F64%30.01 "Hg
* Reported Jan 17 2:54 AM — Feb 1 2:54 AM, Philadelphia, Weather by CustomWeather, © 2014

Note: Actual official high and low records may vary slightly from our data, if they occured in-between our weather recording intervals... More about our weather records

Advertising

Philadelphia weather history for previous 24 hours

 ConditionsComfort  
Time TempWeatherWind HumidityBarometerVisibility
2:54 AM
Feb 1
22 °FPassing clouds.6 mph62%30.26 "Hg10 mi
1:54 AM23 °FPassing clouds.7 mph60%30.26 "Hg10 mi
12:54 AM22 °FPassing clouds.6 mph62%30.26 "Hg10 mi
11:54 PM
Jan 31
23 °FPassing clouds.10 mph57%30.27 "Hg10 mi
10:54 PM22 °FClear.9 mph55%30.26 "Hg10 mi
9:54 PM23 °FClear.8 mph53%30.25 "Hg10 mi
8:54 PM25 °FClear.9 mph50%30.26 "Hg10 mi
7:54 PM25 °FClear.9 mph46%30.26 "Hg10 mi
6:54 PM27 °FPassing clouds.10 mph41%30.25 "Hg10 mi
5:54 PM27 °FPassing clouds.13 mph39%30.23 "Hg10 mi
4:54 PM28 °FSunny.16 mph37%30.22 "Hg10 mi
3:54 PM29 °FSunny.14 mph34%30.20 "Hg10 mi
2:54 PM28 °FSunny.16 mph34%30.20 "Hg10 mi
1:54 PM27 °FSunny.16 mph32%30.20 "Hg10 mi
12:54 PM26 °FSunny.17 mph33%30.22 "Hg10 mi
11:54 AM24 °FSunny.21 mph35%30.25 "Hg10 mi
10:54 AM21 °FSunny.20 mph36%30.28 "Hg10 mi
9:54 AM19 °FSunny.18 mph38%30.27 "Hg10 mi
8:54 AM16 °FSunny.23 mph43%30.25 "Hg10 mi
7:54 AM15 °FSunny.20 mph44%30.24 "Hg10 mi
6:54 AM15 °FClear.15 mph44%30.21 "Hg10 mi
5:54 AM15 °FClear.20 mph44%30.20 "Hg10 mi
4:54 AM15 °FClear.18 mph44%30.21 "Hg10 mi
Weather by CustomWeather, © 2014

See weather overviewHow to use our weather pages